time_stamp(utc),avg(mph),gust(mph),direction(deg),12m_air_temp(f),sonic_u(cm/s),sonic_v(cm/s),sonic_w(cm/s),pressure,2m_air_temp(f),pyranometer(W/m^2)
"2022-05-01 00:03:54+00",13.1,18.1,,,-38,-550,-21,1018.31,50.4,0
"2022-05-01 00:08:54+00",13.4,18.4,,,-66,-554,2,1018.37,50.3,0
"2022-05-01 00:13:54+00",13.3,16.3,,,-97,-570,6,1018.4,50.3,0
"2022-05-01 00:18:54+00",13.4,18.4,,,-106,-567,-6,1018.33,50.3,0
"2022-05-01 00:23:54+00",13.9,18.9,,,-118,-590,6,1018.35,50.3,0
"2022-05-01 00:28:54+00",16.3,21.3,,,-110,-684,-21,1018.42,50.2,0
"2022-05-01 00:33:54+00",11.4,19.4,,,-85,-492,18,1018.52,50.3,0
"2022-05-01 00:38:54+00",15.5,19.5,,,-104,-661,-6,1018.51,50.2,0
"2022-05-01 00:43:54+00",16.0,20.0,,,-150,-687,-9,1018.53,50.2,0
"2022-05-01 00:48:54+00",13.6,18.6,,,-107,-586,20,1018.61,50.2,0
"2022-05-01 00:53:54+00",11.7,16.7,,,-103,-496,16,1018.56,50.3,0
"2022-05-01 00:58:54+00",13.9,17.9,,,-112,-581,-1,1018.47,50.2,0
"2022-05-01 01:03:54+00",13.2,18.2,,,-73,-560,-3,1018.51,50.2,0
"2022-05-01 01:08:54+00",12.4,18.4,,,-123,-505,17,1018.57,50.2,0
"2022-05-01 01:13:54+00",14.6,18.6,,,-200,-614,-2,1018.59,50.3,0
"2022-05-01 01:18:54+00",17.2,20.2,,,-198,-753,-14,1018.6,50.4,0
"2022-05-01 01:23:54+00",13.8,18.8,,,-174,-608,10,1018.69,50.5,0
"2022-05-01 01:28:54+00",14.8,17.8,,,-144,-610,1,1018.82,50.5,0
"2022-05-01 01:33:54+00",17.8,21.8,,,-239,-741,-2,1018.67,50.5,0
"2022-05-01 01:38:54+00",19.2,21.2,,,-291,-788,-7,1018.67,50.5,0
"2022-05-01 01:43:54+00",18.7,21.7,,,-286,-769,-7,1018.78,50.6,0
"2022-05-01 01:48:54+00",16.5,21.5,,,-187,-705,-7,1018.77,50.6,0
"2022-05-01 01:53:54+00",15.6,18.6,,,-180,-652,-13,1018.8,50.5,0
"2022-05-01 01:58:54+00",16.5,18.5,,,-263,-680,17,1018.74,50.5,0
"2022-05-01 02:03:54+00",16.5,19.5,,,-246,-683,0,1018.65,50.6,0
"2022-05-01 02:08:54+00",17.7,20.7,,,-294,-719,7,1018.62,50.5,0
"2022-05-01 02:13:54+00",15.7,17.7,,,-276,-640,5,1018.58,50.5,0
"2022-05-01 02:18:54+00",17.9,20.9,,,-311,-728,-3,1018.64,50.4,0
"2022-05-01 02:23:54+00",15.2,17.2,,,-270,-612,-2,1018.64,50.3,0
"2022-05-01 02:28:54+00",14.4,17.4,,,-277,-589,1,1018.57,50.3,0
"2022-05-01 02:33:54+00",15.9,18.9,,,-288,-647,8,1018.58,50.2,0
"2022-05-01 02:38:54+00",15.1,18.1,,,-316,-614,10,1018.51,50.1,0
"2022-05-01 02:43:54+00",14.9,16.9,,,-289,-602,1,1018.51,50,0
"2022-05-01 02:48:54+00",13.3,15.3,,,-224,-541,6,1018.53,50,0
"2022-05-01 02:53:54+00",12.1,14.1,,,-175,-507,4,1018.52,49.9,0
"2022-05-01 02:58:54+00",13.6,15.6,,,-169,-573,-12,1018.41,49.8,0
"2022-05-01 03:03:54+00",13.5,16.5,,,-177,-561,-4,1018.39,49.7,0
"2022-05-01 03:08:54+00",14.5,17.5,,,-245,-584,0,1018.36,49.7,0
"2022-05-01 03:13:54+00",12.5,14.5,,,-202,-506,-1,1018.25,49.7,0
"2022-05-01 03:18:54+00",12.7,15.7,,,-166,-507,-15,1018.26,49.5,0
"2022-05-01 03:23:54+00",12.0,14.0,,,-148,-495,-9,1018.2,49.5,0
"2022-05-01 03:28:54+00",12.3,14.3,,,-157,-519,-5,1018.19,49.4,0
"2022-05-01 03:33:54+00",12.9,14.9,,,-221,-518,-1,1018.15,49.3,0
"2022-05-01 03:38:54+00",11.7,14.7,,,-242,-470,10,1018.13,49.3,0
"2022-05-01 03:43:54+00",13.9,15.9,,,-327,-555,11,1018.11,49.3,0
"2022-05-01 03:48:54+00",15.2,17.2,,,-361,-594,9,1018.13,49.6,0
"2022-05-01 03:53:54+00",15.4,16.4,,,-394,-592,5,1018.19,49.7,0
"2022-05-01 03:58:54+00",14.5,15.5,,,-385,-553,7,1018.29,49.7,0
"2022-05-01 04:03:54+00",13.8,15.8,,,-351,-531,10,1018.31,49.6,0
"2022-05-01 04:08:54+00",13.7,15.7,,,-347,-535,10,1018.4,49.5,0
"2022-05-01 04:13:54+00",13.5,16.5,,,-366,-509,9,1018.39,49.7,0
"2022-05-01 04:18:54+00",13.5,16.5,,,-381,-486,9,1018.38,49.7,0
"2022-05-01 04:23:54+00",12.5,14.5,,,-357,-469,20,1018.38,49.7,0
"2022-05-01 04:28:54+00",11.9,14.9,,,-332,-425,7,1018.41,49.7,0
"2022-05-01 04:33:54+00",12.8,14.8,,,-379,-428,-1,1018.5,49.5,0
"2022-05-01 04:38:54+00",12.5,13.5,,,-387,-395,16,1018.5,49.5,0
"2022-05-01 04:43:54+00",14.8,16.8,,,-459,-464,22,1018.42,49.5,0
"2022-05-01 04:48:54+00",13.5,15.5,,,-407,-452,12,1018.39,49.6,0
"2022-05-01 04:53:54+00",12.3,14.3,,,-367,-403,18,1018.29,49.6,0
"2022-05-01 04:58:54+00",12.4,14.4,,,-366,-413,23,1018.37,49.6,0
"2022-05-01 05:03:54+00",12.6,14.6,,,-371,-430,1,1018.37,49.6,0
"2022-05-01 05:08:54+00",11.5,13.5,,,-354,-381,17,1018.32,49.5,0
"2022-05-01 05:13:54+00",12.7,14.7,,,-384,-406,7,1018.4,49.5,0
"2022-05-01 05:18:54+00",12.1,13.1,,,-379,-374,11,1018.35,49.5,0
"2022-05-01 05:23:54+00",11.7,12.7,,,-382,-342,13,1018.32,49.5,0
"2022-05-01 05:28:54+00",13.6,15.6,,,-473,-385,21,1018.36,49.4,0
"2022-05-01 05:33:54+00",12.3,14.3,,,-431,-345,27,1018.36,49.5,0
"2022-05-01 05:38:54+00",12.9,14.9,,,-468,-364,9,1018.32,49.5,0
"2022-05-01 05:43:54+00",11.2,13.2,,,-414,-299,17,1018.34,49.5,0
"2022-05-01 05:48:54+00",8.9,10.9,,,-351,-233,28,1018.26,49.5,0
"2022-05-01 05:53:54+00",10.4,11.4,,,-404,-272,29,1018.22,49.4,0
"2022-05-01 05:58:54+00",10.0,12.0,,,-403,-267,19,1018.26,49.4,0
"2022-05-01 06:03:54+00",10.5,12.5,,,-443,-239,29,1018.34,49.3,0
"2022-05-01 06:08:54+00",11.9,13.9,,,-508,-265,37,1018.31,49.3,0
"2022-05-01 06:13:54+00",11.5,13.5,,,-492,-260,18,1018.37,49.3,0
"2022-05-01 06:18:54+00",10.9,12.9,,,-440,-192,16,1018.36,49.2,0
"2022-05-01 06:23:54+00",9.3,10.3,,,-395,-95,13,1018.35,49,0
"2022-05-01 06:28:54+00",10.8,11.8,,,-456,-100,20,1018.34,48.5,0
"2022-05-01 06:33:54+00",11.0,12.0,,,-464,-105,14,1018.44,48.2,0
"2022-05-01 06:38:54+00",10.7,11.7,,,-457,-101,9,1018.39,48.1,0
"2022-05-01 06:43:54+00",10.3,11.3,,,-440,-96,19,1018.35,48,0
"2022-05-01 06:48:54+00",11.8,14.8,,,-506,-84,19,1018.46,48,0
"2022-05-01 06:53:54+00",12.4,14.4,,,-535,-118,15,1018.42,48,0
"2022-05-01 06:58:54+00",12.5,13.5,,,-509,-164,31,1018.44,48.1,0
"2022-05-01 07:03:54+00",11.9,13.9,,,-489,-138,20,1018.53,48.1,0
"2022-05-01 07:08:54+00",9.3,10.3,,,-418,26,19,1018.48,48,0
"2022-05-01 07:13:54+00",10.5,11.5,,,-476,-9,22,1018.59,47.7,0
"2022-05-01 07:18:54+00",11.0,12.0,,,-492,14,20,1018.55,47.5,0
"2022-05-01 07:23:54+00",9.3,10.3,,,-418,6,18,1018.56,47.3,0
"2022-05-01 07:28:54+00",8.6,9.6,,,-375,-34,14,1018.5,47.2,0
"2022-05-01 07:33:54+00",9.2,10.2,,,-400,-57,16,1018.61,46.9,0
"2022-05-01 07:38:54+00",9.1,10.1,,,-394,-76,13,1018.69,46.8,0
"2022-05-01 07:43:54+00",9.7,10.7,,,-388,-122,20,1018.74,46.7,0
"2022-05-01 07:48:54+00",10.4,11.4,,,-432,-126,15,1018.69,46.6,0
"2022-05-01 07:53:54+00",9.7,10.7,,,-413,-93,14,1018.73,46.5,0
"2022-05-01 07:58:54+00",8.9,8.9,,,-377,-85,11,1018.62,46.4,0
"2022-05-01 08:03:54+00",9.3,10.3,,,-392,-89,13,1018.6,46.3,0
"2022-05-01 08:08:54+00",9.0,10.0,,,-382,-116,16,1018.53,46.1,0
"2022-05-01 08:13:54+00",10.0,10.0,,,-394,-148,15,1018.56,46.1,0
"2022-05-01 08:18:54+00",10.2,11.2,,,-402,-154,15,1018.52,46,0
"2022-05-01 08:23:54+00",10.1,11.1,,,-400,-179,12,1018.48,46.1,0
"2022-05-01 08:28:54+00",11.5,13.5,,,-456,-191,15,1018.44,46,0
"2022-05-01 08:33:54+00",9.5,10.5,,,-382,-154,9,1018.33,46.1,0
"2022-05-01 08:38:54+00",9.0,10.0,,,-382,-86,13,1018.28,46.1,0
"2022-05-01 08:43:54+00",10.0,11.0,,,-408,-115,10,1018.39,46.2,0
"2022-05-01 08:48:54+00",9.7,10.7,,,-409,-91,8,1018.35,46.2,0
"2022-05-01 08:53:54+00",9.4,10.4,,,-384,-117,5,1018.34,46.1,0
"2022-05-01 08:58:54+00",10.1,11.1,,,-411,-134,13,1018.38,46,0
"2022-05-01 09:03:54+00",9.7,10.7,,,-396,-115,9,1018.46,46,0
"2022-05-01 09:08:54+00",9.2,10.2,,,-400,-61,11,1018.41,46.1,0
"2022-05-01 09:13:54+00",9.2,10.2,,,-410,-31,8,1018.48,46,0
"2022-05-01 09:18:54+00",7.7,8.7,,,-329,-51,10,1018.48,45.9,0
"2022-05-01 09:23:54+00",8.6,9.6,,,-377,-47,6,1018.46,45.8,0
"2022-05-01 09:28:54+00",8.2,9.2,,,-347,-72,4,1018.45,45.7,0
"2022-05-01 09:33:54+00",8.3,9.3,,,-351,-80,12,1018.42,45.7,0
"2022-05-01 09:38:54+00",8.1,8.1,,,-351,-55,16,1018.44,45.6,0
"2022-05-01 09:43:54+00",7.7,8.7,,,-322,-83,9,1018.44,45.4,0
"2022-05-01 09:48:54+00",7.4,8.4,,,-300,-92,6,1018.39,45.2,0
"2022-05-01 09:53:54+00",7.1,7.1,,,-287,-89,5,1018.37,44.9,0
"2022-05-01 10:03:54+00",7.4,8.4,,,-285,-103,11,1018.49,44.6,0
"2022-05-01 10:08:54+00",8.3,9.3,,,-352,-84,5,1018.61,44.5,0
"2022-05-01 10:13:54+00",8.3,9.3,,,-338,-108,6,1018.46,44.4,0
"2022-05-01 10:18:54+00",8.8,9.8,,,-356,-115,15,1018.63,44.4,0
"2022-05-01 10:23:54+00",8.5,8.5,,,-336,-118,8,1018.59,44.4,0
"2022-05-01 10:28:54+00",7.5,8.5,,,-319,-181,7,1018.76,44.6,0
"2022-05-01 10:33:54+00",8.2,9.2,,,-326,-203,12,1018.86,45,0
"2022-05-01 10:38:54+00",7.9,8.9,,,-300,-205,10,1018.86,45.4,0
"2022-05-01 10:43:54+00",10.2,11.2,,,-369,-273,11,1018.96,46.1,0
"2022-05-01 10:48:54+00",7.7,8.7,,,-275,-206,1,1018.98,46.8,0
"2022-05-01 10:53:54+00",8.0,9.0,,,-263,-229,6,1019.01,47.6,0
"2022-05-01 10:58:54+00",7.6,8.6,,,-247,-215,14,1019.18,48.4,0
"2022-05-01 11:03:54+00",8.2,9.2,,,-244,-252,4,1019.18,49.1,0
"2022-05-01 11:08:54+00",7.1,8.1,,,-243,-198,4,1019.25,49.6,0
"2022-05-01 11:13:54+00",7.4,8.4,,,-266,-201,8,1019.27,50.1,0.1
"2022-05-01 11:18:54+00",8.0,9.0,,,-316,-192,1,1019.27,50.6,0.1
"2022-05-01 11:23:54+00",7.6,8.6,,,-312,-167,9,1019.27,51.2,0
"2022-05-01 11:28:54+00",8.2,9.2,,,-319,-192,5,1019.32,51.6,0
"2022-05-01 11:33:54+00",7.8,9.8,,,-323,-162,10,1019.38,52,0
"2022-05-01 11:38:54+00",8.7,9.7,,,-348,-157,11,1019.32,52.5,0
"2022-05-01 11:43:54+00",9.8,10.8,,50.8,-395,-153,20,1019.5,52.9,0
"2022-05-01 11:48:54+00",9.5,10.5,,,-411,-67,18,1019.57,53.1,0
"2022-05-01 11:53:54+00",7.7,8.7,,,-337,5,24,1019.6,53.4,0.4
"2022-05-01 11:58:54+00",6.4,7.4,,,-269,94,18,1019.62,53.8,0.1
"2022-05-01 12:03:54+00",6.2,6.2,,,-270,58,7,1019.72,54.3,0.4
"2022-05-01 12:08:54+00",5.3,6.3,,,-190,120,-3,1019.72,54.4,0
"2022-05-01 12:13:54+00",4.4,5.4,,,-139,98,64,1019.68,53.8,0.2
"2022-05-01 12:18:54+00",5.1,7.1,,,-195,106,46,1019.66,54.2,1
"2022-05-01 12:23:54+00",5.0,6.0,,,-183,115,6,1019.69,54.3,0
"2022-05-01 12:28:54+00",4.0,5.0,,,-156,66,15,1019.64,54.6,0
"2022-05-01 12:33:54+00",5.0,6.0,,,-197,110,2,1019.6,54.9,7.2
"2022-05-01 12:38:54+00",2.9,3.9,,,-97,74,19,1019.68,55.1,46
"2022-05-01 12:43:54+00",3.6,4.6,,,-117,67,55,1019.62,55.6,116.6
"2022-05-01 12:48:54+00",4.5,5.5,,,-188,35,2,1019.78,56,178.6
"2022-05-01 12:53:54+00",4.8,5.8,,,-203,39,13,1019.79,56.8,207.3
"2022-05-01 12:58:54+00",6.2,7.2,,,-270,54,4,1019.76,57.6,237.9
"2022-05-01 13:03:54+00",5.3,6.3,,,-206,91,25,1019.75,58.3,234.3
"2022-05-01 13:08:54+00",6.1,7.1,,,-256,63,-5,1019.74,58.5,259.7
"2022-05-01 13:13:54+00",6.3,7.3,,,-278,64,3,1019.72,59,249.7
"2022-05-01 13:18:54+00",5.5,6.5,,,-234,63,-3,1019.78,60,275.4
"2022-05-01 13:23:54+00",3.8,4.8,,,-158,7,-4,1019.87,60.9,282
"2022-05-01 13:28:54+00",3.8,4.8,,,-142,58,-18,1019.71,61.3,295.5
"2022-05-01 13:33:54+00",3.4,3.4,,,-135,66,5,1019.69,61.2,304
"2022-05-01 13:38:54+00",1.4,2.4,,,-46,-3,-14,1019.66,60.8,315.4
"2022-05-01 13:43:54+00",2.5,2.5,,,-90,-8,-23,1019.67,61.2,321.2
"2022-05-01 13:48:54+00",3.1,4.1,,,-134,11,-14,1019.72,61.1,331.5
"2022-05-01 13:53:54+00",3.3,4.3,,,-115,49,-12,1019.72,61.2,341.2
"2022-05-01 13:58:54+00",2.2,3.2,,,-55,-77,-8,1019.8,61.3,348.9
"2022-05-01 14:03:54+00",3.1,6.1,,,-106,-90,14,1019.93,61.3,358.6
"2022-05-01 14:08:54+00",2.2,3.2,,,-2,-83,9,1019.97,61.2,371.2
"2022-05-01 14:13:54+00",3.0,4.0,,,-83,-96,4,1019.9,61.8,377.1
"2022-05-01 14:18:54+00",3.2,4.2,,,-48,-119,19,1019.99,61.6,384.8
"2022-05-01 14:23:54+00",6.4,7.4,,,51,-262,-6,1020.06,59.8,393.6
"2022-05-01 14:28:54+00",6.3,7.3,,,48,-263,6,1020.24,58.3,395.9
"2022-05-01 14:33:54+00",8.0,10.0,,,61,-332,0,1020.35,57.3,408.2
"2022-05-01 14:38:54+00",6.6,7.6,,,70,-243,29,1020.37,57.4,418.2
"2022-05-01 14:43:54+00",6.9,8.9,,,79,-276,-6,1020.36,58,428.2
"2022-05-01 14:48:54+00",7.4,8.4,,,98,-292,-5,1020.33,57.7,434.8
"2022-05-01 14:53:54+00",8.3,11.3,,,165,-327,-6,1020.47,58.1,440.4
"2022-05-01 14:58:54+00",8.2,9.2,,,174,-306,5,1020.58,58.1,447.9
"2022-05-01 15:03:54+00",10.0,11.0,,,191,-394,-17,1020.44,57.6,459.2
"2022-05-01 15:08:54+00",9.7,10.7,,,229,-352,-16,1020.5,58.1,468
"2022-05-01 15:13:54+00",9.0,11.0,,,198,-334,5,1020.57,58.2,471.7
"2022-05-01 15:18:54+00",9.1,10.1,,,220,-334,3,1020.49,58.6,472.9
"2022-05-01 15:23:54+00",9.5,10.5,,,240,-321,5,1020.4,58.6,477.4
"2022-05-01 15:28:54+00",9.8,10.8,,,335,-277,16,1020.27,59,484.1
"2022-05-01 15:33:54+00",10.4,11.4,,,376,-255,-6,1020.39,59.3,487.1
"2022-05-01 15:38:54+00",10.6,12.6,,,300,-340,11,1020.45,58.8,490.2
"2022-05-01 15:43:54+00",11.8,12.8,,,292,-419,2,1020.43,58.5,494.9
"2022-05-01 15:48:54+00",12.6,15.6,,,253,-472,-29,1020.36,57.1,503
"2022-05-01 15:53:54+00",11.7,12.7,,,149,-468,-19,1020.45,57,448.4
"2022-05-01 15:58:54+00",11.3,13.3,,,197,-448,-13,1020.36,57.1,513.5
"2022-05-01 16:03:54+00",11.9,12.9,,,249,-458,-25,1020.34,56.9,522
"2022-05-01 16:08:54+00",10.4,12.4,,,216,-386,-2,1020.24,57.2,511.7
"2022-05-01 16:13:54+00",9.9,10.9,,,160,-389,-3,1020.24,57.7,513.5
"2022-05-01 16:18:54+00",12.0,13.0,,,271,-454,-6,1020.21,57.5,438.3
"2022-05-01 16:23:54+00",12.5,13.5,,,246,-485,-21,1020.21,57.2,496
"2022-05-01 16:28:54+00",11.6,13.6,,,214,-438,27,1020.06,57.3,378.6
"2022-05-01 16:33:54+00",11.7,13.7,,,195,-455,11,1020.12,57.7,481.4
"2022-05-01 16:38:54+00",13.7,14.7,,,225,-545,-26,1019.92,57.2,480.6
"2022-05-01 16:43:54+00",12.3,14.3,,,166,-493,3,1019.79,57.3,491.8
"2022-05-01 16:48:54+00",12.2,13.2,,,175,-493,-9,1019.71,57.4,482.1
"2022-05-01 16:53:54+00",13.4,14.4,,,164,-550,-33,1019.75,57.3,478
"2022-05-01 16:58:54+00",12.2,13.2,,,215,-479,-30,1019.62,56.8,366.2
"2022-05-01 17:03:54+00",12.5,13.5,,,183,-514,-14,1019.57,57.3,445.5
"2022-05-01 17:08:54+00",9.9,12.9,,,145,-386,44,1019.58,57.7,506.1
"2022-05-01 17:13:54+00",12.9,14.9,,,209,-525,-24,1019.57,57.7,504.2
"2022-05-01 17:18:54+00",12.8,14.8,,,241,-480,26,1019.58,58.2,520.7
"2022-05-01 17:23:54+00",13.1,15.1,,,212,-537,-27,1019.47,57.8,529
"2022-05-01 17:28:54+00",13.8,15.8,,,257,-539,-10,1019.41,57.9,501.9
"2022-05-01 17:33:54+00",13.4,15.4,,,190,-536,-17,1019.38,57.8,516.1
"2022-05-01 17:38:54+00",12.8,14.8,,,160,-491,10,1019.38,57.3,516.3
"2022-05-01 17:43:54+00",10.9,12.9,,,93,-467,-11,1019.38,58,517.9
"2022-05-01 17:48:54+00",11.8,15.8,,,120,-501,4,1019.37,58.5,506
"2022-05-01 17:53:54+00",13.3,16.3,,,136,-547,-21,1019.33,58.7,509.8
"2022-05-01 17:58:54+00",12.8,15.8,,,112,-547,-4,1019.25,58.7,506.2
"2022-05-01 18:03:54+00",14.4,16.4,,,161,-604,-18,1019.19,58.6,503.1
"2022-05-01 18:08:54+00",13.5,15.5,,,190,-527,-1,1019.17,59.1,463.3
"2022-05-01 18:13:54+00",14.6,17.6,,,160,-612,-22,1019.09,58.6,443.5
"2022-05-01 18:18:54+00",12.0,16.0,,,121,-507,2,1019.08,58.8,440.2
"2022-05-01 18:23:54+00",12.6,15.6,,,202,-503,13,1019,58.3,485.1
"2022-05-01 18:28:54+00",13.5,16.5,,,207,-541,6,1018.97,59,472.6
"2022-05-01 18:33:54+00",14.2,17.2,,,204,-584,-16,1018.82,58.7,446.6
"2022-05-01 18:38:54+00",13.0,17.0,,,154,-495,46,1018.8,58.4,499
"2022-05-01 18:43:54+00",14.0,17.0,,,162,-586,-4,1018.84,58.8,463.6
"2022-05-01 18:48:54+00",12.5,15.5,,,122,-525,9,1018.73,58.7,382.6
"2022-05-01 18:53:54+00",15.6,17.6,,,130,-668,-16,1018.73,57.7,140.4
"2022-05-01 18:58:54+00",15.3,18.3,,,93,-648,-18,1018.79,57.2,171.9
"2022-05-01 19:03:54+00",14.0,17.0,,,125,-597,-13,1018.75,57.4,222.7
"2022-05-01 19:08:54+00",13.0,16.0,,,148,-527,13,1018.69,58,247.6
"2022-05-01 19:13:54+00",15.0,18.0,,,175,-634,-22,1018.57,58.1,231.8
"2022-05-01 19:18:54+00",13.1,16.1,,,110,-560,-27,1018.55,58.4,243.8
"2022-05-01 19:23:54+00",15.1,18.1,,,199,-635,-28,1018.5,58.5,267.5
"2022-05-01 19:28:54+00",12.9,15.9,,,168,-518,-5,1018.46,58.7,246.6
"2022-05-01 19:33:54+00",15.4,17.4,,,267,-602,-1,1018.36,58.7,310.8
"2022-05-01 19:38:54+00",14.1,17.1,,,149,-588,-15,1018.41,58.9,266.5
"2022-05-01 19:43:54+00",11.3,16.3,,,84,-474,3,1018.43,59,235.3
"2022-05-01 19:48:54+00",11.3,16.3,,,38,-478,12,1018.31,59.9,182.4
"2022-05-01 19:53:54+00",12.2,15.2,,,0,-509,-14,1018.29,59.9,142.8
"2022-05-01 19:58:54+00",10.0,14.0,,,-23,-429,5,1018.36,59.8,108.8
"2022-05-01 20:03:54+00",12.9,17.9,,,-83,-539,-6,1018.34,59.4,87.1
"2022-05-01 20:08:54+00",13.9,16.9,,,-136,-582,-9,1018.35,59.1,82.8
"2022-05-01 20:13:54+00",12.8,15.8,,,-62,-560,-14,1018.35,59,76.8
"2022-05-01 20:18:54+00",13.5,16.5,,,-88,-580,-12,1018.43,58.9,79
"2022-05-01 20:23:54+00",13.6,15.6,,58,-146,-575,-1,1018.44,58.8,70.3
"2022-05-01 20:28:54+00",12.2,15.2,,,-117,-513,-3,1018.51,58.5,58.7
"2022-05-01 20:33:54+00",13.1,15.1,,,-211,-548,17,1018.51,58.5,50.9
"2022-05-01 20:38:54+00",15.7,16.7,,,-277,-623,-13,1018.52,58.4,44.9
"2022-05-01 20:43:54+00",14.3,16.3,,,-200,-579,-8,1018.59,58.3,27.5
"2022-05-01 20:48:54+00",15.1,17.1,,,-232,-629,-9,1018.59,58.2,13.1
"2022-05-01 20:53:54+00",14.0,16.0,,,-211,-581,-23,1018.6,57.9,8
"2022-05-01 20:58:54+00",13.3,15.3,,,-232,-542,-6,1018.68,57.8,9.1
"2022-05-01 21:03:54+00",11.5,13.5,,,-204,-473,12,1018.78,57.9,1.8
"2022-05-01 21:08:54+00",14.3,16.3,,,-267,-583,7,1018.77,57.9,1.8
"2022-05-01 21:13:54+00",12.5,14.5,,,-197,-516,-6,1018.84,58,0.3
"2022-05-01 21:18:54+00",11.9,14.9,,,-204,-474,7,1018.86,58,0.3
"2022-05-01 21:23:54+00",13.0,14.0,,,-172,-543,1,1018.8,58,1
"2022-05-01 21:28:54+00",11.9,14.9,,,-143,-502,0,1018.71,58.1,2.8
"2022-05-01 21:33:54+00",11.8,13.8,,,-122,-486,-17,1018.63,58.2,3.9
"2022-05-01 21:38:54+00",13.9,16.9,,,-170,-578,-11,1018.67,58.1,0.1
"2022-05-01 21:43:54+00",10.5,13.5,,,-106,-454,1,1018.64,58,0
"2022-05-01 21:48:54+00",9.9,12.9,,,-87,-434,-1,1018.59,57.9,0
"2022-05-01 21:53:54+00",10.0,13.0,,,-39,-427,-6,1018.44,57.7,0
"2022-05-01 21:58:54+00",10.3,13.3,,,2,-441,-18,1018.36,57.3,0
"2022-05-01 22:03:54+00",8.7,12.7,,56.7,-65,-352,14,1018.34,56.9,0
"2022-05-01 22:08:54+00",11.6,15.6,,,-85,-500,-11,1018.15,56.5,0
"2022-05-01 22:13:54+00",16.7,19.7,,,-239,-706,-19,1017.97,56.4,0
"2022-05-01 22:18:54+00",15.1,18.1,,,-310,-612,0,1018.05,56.3,0
"2022-05-01 22:23:54+00",16.3,19.3,,,-344,-655,7,1017.9,56.1,0
"2022-05-01 22:28:54+00",13.2,16.2,,,-259,-542,10,1017.77,55.8,0
"2022-05-01 22:33:54+00",14.0,16.0,,,-158,-600,-13,1017.57,55.4,0
"2022-05-01 22:38:54+00",11.1,16.1,,,-117,-493,-12,1017.38,55.1,0
"2022-05-01 22:43:54+00",13.9,15.9,,,-173,-600,-2,1017.26,54.9,0
"2022-05-01 22:48:54+00",10.9,14.9,,,-49,-459,-4,1017.11,54.4,0
"2022-05-01 22:53:54+00",7.6,9.6,,,-2,-316,-13,1016.93,54.2,0
"2022-05-01 22:58:54+00",9.7,11.7,,,19,-409,-23,1016.89,54.1,0
"2022-05-01 23:03:54+00",10.4,11.4,,,97,-434,-20,1016.77,54,0
"2022-05-01 23:08:54+00",9.4,11.4,,,161,-372,-4,1016.53,53.8,0
"2022-05-01 23:13:54+00",9.6,11.6,,,102,-411,-8,1016.58,53.7,0
"2022-05-01 23:18:54+00",14.3,16.3,,,416,-490,-3,1015.78,53.3,0
"2022-05-01 23:23:54+00",13.7,15.7,,,231,-567,-23,1015.87,52.8,0
"2022-05-01 23:28:54+00",14.5,17.5,,,279,-573,-46,1015.88,52.6,0
"2022-05-01 23:33:54+00",10.5,13.5,,,14,-438,-26,1016.64,52.6,0
"2022-05-01 23:38:54+00",11.9,13.9,,,-305,-455,-3,1017.39,52.7,0
"2022-05-01 23:43:54+00",12.2,14.2,,,-368,-404,23,1017.72,52.9,0
"2022-05-01 23:48:54+00",14.2,17.2,,,-402,-496,26,1017.72,52.8,0
"2022-05-01 23:53:54+00",13.8,14.8,,,-317,-545,-3,1017.6,52.7,0
"2022-05-01 23:58:54+00",10.1,12.1,,,-269,-382,27,1017.69,52.6,0
